CW3619 Weather Reports


Display with metric or nautical units.
time (UTC)temp
F
wind
direction
speed
MPH
gust
MPH
rain 1hr
in
rain 24hr
in
rain mn
in
humidity
%
barometer
mb
20190422185205 62 5 0.0 0.0 0.00 0.00 0.00 55 1000.9
20190422184706 62 5 0.0 0.0 0.00 0.00 0.00 55 1000.9
20190422184206 62 5 0.0 0.0 0.00 0.00 0.00 55 1000.9
20190422183705 62 5 0.0 0.0 0.00 0.00 0.00 54 1000.9
20190422183205 63 5 0.0 0.0 0.00 0.00 0.00 53 1001.0
20190422182705 64 5 0.0 0.0 0.00 0.00 0.00 52 1001.0
20190422182205 64 5 0.0 0.0 0.00 0.00 0.00 51 1001.0
20190422181705 65 5 0.0 0.0 0.00 0.00 0.00 51 1001.0
20190422181205 65 5 0.0 1.0 0.00 0.00 0.00 49 1001.0
20190422180705 66 5 0.0 1.0 0.00 0.00 0.00 48 1001.1
20190422180206 66 5 0.0 1.0 0.00 0.00 0.00 47 1001.2
20190422175706 67 5 0.0 0.0 0.00 0.00 0.00 47 1001.2
20190422175205 67 5 0.0 0.0 0.00 0.00 0.00 47 1001.2
20190422174705 67 5 0.0 1.0 0.00 0.00 0.00 46 1001.2
20190422174206 68 5 0.0 1.0 0.00 0.00 0.00 45 1001.3
20190422173706 68 5 0.0 1.0 0.00 0.00 0.00 44 1001.3
20190422173206 69 5 0.0 1.0 0.00 0.00 0.00 43 1001.3
20190422172705 69 5 0.0 1.0 0.00 0.00 0.00 42 1001.3
20190422172205 69 5 0.0 3.0 0.00 0.00 0.00 40 1001.3
20190422171706 70 5 0.0 3.0 0.00 0.00 0.00 41 1001.3
20190422171205 70 5 0.0 3.0 0.00 0.00 0.00 39 1001.4
20190422170705 70 5 0.0 6.0 0.00 0.00 0.00 40 1001.4
20190422170207 71 5 0.0 6.0 0.00 0.00 0.00 40 1001.5
20190422165705 71 5 1.0 6.0 0.00 0.00 0.00 39 1001.5
20190422165205 72 0 1.0 5.0 0.00 0.00 0.00 36 1001.6
20190422164706 72 355 0.0 5.0 0.00 0.00 0.00 38 1001.6
20190422164205 73 355 1.0 5.0 0.00 0.00 0.00 36 1001.8
20190422163706 73 346 1.0 6.0 0.00 0.00 0.00 34 1001.9
20190422163206 74 22 1.0 6.0 0.00 0.00 0.00 31 1001.9
20190422162705 74 20 1.0 6.0 0.00 0.00 0.00 32 1002.0
20190422162205 74 17 1.0 5.0 0.00 0.00 0.00 32 1002.2
20190422161705 73 22 1.0 6.0 0.00 0.00 0.00 33 1002.2
20190422161205 73 22 2.0 6.0 0.00 0.00 0.00 34 1002.2
20190422160705 73 40 2.0 6.0 0.00 0.00 0.00 35 1002.2
20190422160205 72 13 1.0 5.0 0.00 0.00 0.00 37 1002.2
20190422155705 72 19 1.0 5.0 0.00 0.00 0.00 38 1002.3
20190422155206 71 23 1.0 6.0 0.00 0.00 0.00 38 1002.3
20190422154706 71 21 1.0 6.0 0.00 0.00 0.00 36 1002.3
20190422154206 71 21 1.0 6.0 0.00 0.00 0.00 37 1002.3
20190422153706 71 15 2.0 6.0 0.00 0.00 0.00 37 1002.4
20190422153206 71 14 2.0 6.0 0.00 0.00 0.00 38 1002.5
20190422152705 71 15 1.0 5.0 0.00 0.00 0.00 39 1002.5
20190422152205 71 13 1.0 4.0 0.00 0.00 0.00 39 1002.5
20190422151706 71 5 0.0 3.0 0.00 0.00 0.00 40 1002.5
20190422151205 71 315 0.0 6.0 0.00 0.00 0.00 40 1002.5
20190422150705 71 341 1.0 6.0 0.00 0.00 0.00 40 1002.6
20190422150206 71 0 1.0 5.0 0.00 0.00 0.00 39 1002.7
20190422145705 71 29 1.0 5.0 0.00 0.00 0.00 39 1002.7
20190422145205 71 30 1.0 8.0 0.00 0.00 0.00 37 1002.8
20190422144706 72 0 3.0 8.0 0.00 0.00 0.00 36 1002.8
20190422144205 72 34 4.0 8.0 0.00 0.00 0.00 35 1002.9
20190422143705 72 42 5.0 8.0 0.00 0.00 0.00 34 1002.9
20190422143206 72 15 5.0 10.0 0.00 0.00 0.00 34 1003.1
20190422142705 72 24 5.0 10.0 0.00 0.00 0.00 34 1003.2
20190422142205 73 30 5.0 10.0 0.00 0.00 0.00 33 1003.2
20190422141706 73 22 5.0 12.0 0.00 0.00 0.00 33 1003.3
20190422141205 73 11 6.0 12.0 0.00 0.00 0.00 33 1003.3
20190422140705 74 40 5.0 12.0 0.00 0.00 0.00 33 1003.4
20190422140206 74 31 4.0 11.0 0.00 0.00 0.00 33 1003.5
20190422135706 74 36 5.0 13.0 0.00 0.00 0.00 33 1003.5
20190422135205 74 38 6.0 13.0 0.00 0.00 0.00 31 1003.6
20190422134705 74 24 6.0 13.0 0.00 0.00 0.00 31 1003.6
20190422134206 74 9 6.0 10.0 0.00 0.00 0.00 31 1003.6
20190422133707 74 46 6.0 11.0 0.00 0.00 0.00 31 1003.7
20190422133206 73 30 5.0 12.0 0.00 0.00 0.00 30 1003.8
20190422132705 74 26 5.0 12.0 0.00 0.00 0.00 30 1003.8
20190422132205 74 25 6.0 13.0 0.00 0.00 0.00 30 1003.9
20190422131705 74 348 7.0 13.0 0.00 0.00 0.00 29 1004.0
20190422131206 75 355 6.0 13.0 0.00 0.00 0.00 29 1004.2
20190422130705 75 9 6.0 14.0 0.00 0.00 0.00 30 1004.3
20190422130206 75 36 7.0 14.0 0.00 0.00 0.00 28 1004.3
20190422125705 75 48 6.0 14.0 0.00 0.00 0.00 29 1004.4
20190422125206 76 49 4.0 14.0 0.00 0.00 0.00 31 1004.5
20190422124705 75 17 4.0 14.0 0.00 0.00 0.00 33 1004.5
20190422124205 75 0 4.0 14.0 0.00 0.00 0.00 30 1004.7
20190422123705 74 26 4.0 14.0 0.00 0.00 0.00 33 1004.7
20190422123211 75 98 4.0 14.0 0.00 0.00 0.00 34 1004.8
20190422122705 74 34 1.0 6.0 0.00 0.00 0.00 38 1004.9
20190422122205 72 325 0.0 9.0 0.00 0.00 0.00 39 1004.9
20190422121710 71 341 1.0 9.0 0.00 0.00 0.00 41 1005.0
20190422121206 70 311 1.0 9.0 0.00 0.00 0.00 41 1005.1
20190422120705 69 14 1.0 9.0 0.00 0.00 0.00 42 1005.2
20190422120206 68 339 1.0 9.0 0.00 0.00 0.00 42 1005.3
20190422115705 68 344 2.0 9.0 0.00 0.00 0.00 43 1005.3
20190422115205 68 26 2.0 7.0 0.00 0.00 0.00 42 1005.5
20190422114706 69 9 2.0 9.0 0.00 0.00 0.00 42 1005.6
20190422114206 68 348 2.0 9.0 0.00 0.00 0.00 41 1005.6
20190422113706 69 26 3.0 9.0 0.00 0.00 0.00 43 1005.7
20190422113205 69 313 4.0 9.0 0.00 0.00 0.00 41 1005.7
20190422112706 69 17 3.0 9.0 0.00 0.00 0.00 40 1005.8
20190422112206 68 15 1.0 9.0 0.00 0.00 0.00 40 1005.9
20190422111706 68 22 3.0 9.0 0.00 0.00 0.00 42 1005.9
20190422111205 67 34 3.0 9.0 0.00 0.00 0.00 42 1006.0
20190422110705 67 15 2.0 10.0 0.00 0.00 0.00 41 1006.0
20190422110205 67 28 2.0 10.0 0.00 0.00 0.00 42 1006.2
20190422105705 67 0 3.0 10.0 0.00 0.00 0.00 41 1006.2
20190422105206 68 36 4.0 10.0 0.00 0.00 0.00 40 1006.4
20190422104705 69 12 4.0 10.0 0.00 0.00 0.00 39 1006.5
20190422104206 69 5 3.0 10.0 0.00 0.00 0.00 39 1006.5
20190422103706 67 350 3.0 10.0 0.00 0.00 0.00 44 1006.7
20190422103205 68 23 6.0 10.0 0.00 0.00 0.00 41 1006.8
20190422102711 67 36 5.0 10.0 0.00 0.00 0.00 41 1006.9
20190422102206 65 28 3.0 9.0 0.00 0.00 0.00 43 1007.0
20190422101705 65 31 3.0 7.0 0.00 0.00 0.00 43 1007.2
20190422101206 65 5 2.0 7.0 0.00 0.00 0.00 44 1007.3
20190422100707 64 5 1.0 7.0 0.00 0.00 0.00 45 1007.4
20190422100206 64 27 1.0 7.0 0.00 0.00 0.00 45 1007.5
20190422095706 64 355 1.0 9.0 0.00 0.00 0.00 47 1007.6
20190422095206 64 5 1.0 9.0 0.00 0.00 0.00 47 1007.7
20190422094706 65 48 3.0 11.0 0.00 0.00 0.00 43 1007.7
20190422094207 65 36 5.0 11.0 0.00 0.00 0.00 43 1007.8
20190422093705 64 27 5.0 11.0 0.00 0.00 0.00 42 1007.8
20190422093211 64 12 5.0 9.0 0.00 0.00 0.00 44 1008.0
20190422092706 63 33 4.0 8.0 0.00 0.00 0.00 43 1008.0
20190422092210 63 20 3.0 8.0 0.00 0.00 0.00 44 1008.1
20190422091211 62 27 4.0 9.0 0.00 0.00 0.00 45 1008.2
20190422090705 62 22 4.0 9.0 0.00 0.00 0.00 44 1008.3
20190422090207 61 28 3.0 8.0 0.00 0.00 0.00 46 1008.3
20190422085715 61 13 2.0 8.0 0.00 0.00 0.00 45 1008.4
20190422085205 60 28 1.0 8.0 0.00 0.00 0.00 47 1008.5
20190422084708 60 342 1.0 8.0 0.00 0.00 0.00 49 1008.5
20190422084210 60 31 3.0 9.0 0.00 0.00 0.00 49 1008.5
20190422083710 60 51 3.0 9.0 0.00 0.00 0.00 48 1008.6
20190422083205 59 340 2.0 6.0 0.00 0.00 0.00 48 1008.6
20190422082705 58 278 1.0 8.0 0.00 0.00 0.00 52 1008.7
20190422082205 58 29 2.0 8.0 0.00 0.00 0.00 51 1008.7
20190422081705 58 16 3.0 8.0 0.00 0.00 0.00 50 1008.8
20190422081215 58 23 1.0 7.0 0.00 0.00 0.00 51 1008.8
20190422080711 57 27 2.0 5.0 0.00 0.00 0.00 53 1008.9
20190422080206 57 57 2.0 7.0 0.00 0.00 0.00 52 1009.1
20190422075705 57 42 1.0 7.0 0.00 0.00 0.00 54 1009.1
20190422075205 56 52 2.0 7.0 0.00 0.00 0.00 54 1009.2
20190422074706 56 39 3.0 6.0 0.00 0.00 0.00 54 1009.3
20190422074205 55 25 3.0 6.0 0.00 0.00 0.00 55 1009.3
20190422073705 55 25 2.0 6.0 0.00 0.00 0.00 56 1009.4
20190422073205 55 12 3.0 7.0 0.00 0.00 0.00 58 1009.5
20190422072705 54 27 3.0 7.0 0.00 0.00 0.00 57 1009.5
20190422072210 53 24 3.0 7.0 0.00 0.00 0.00 58 1009.5
20190422071705 53 21 4.0 7.0 0.00 0.00 0.00 58 1009.6
20190422071206 53 31 4.0 7.0 0.00 0.00 0.00 58 1009.7
20190422070715 53 32 4.0 7.0 0.00 0.00 0.00 58 1009.7
20190422070206 52 29 2.0 7.0 0.00 0.00 0.00 59 1009.7
20190422065705 51 15 1.0 6.0 0.00 0.00 0.00 64 1009.8
20190422065210 50 25 0.0 1.0 0.00 0.00 0.00 70 1009.8
20190422064710 49 25 0.0 0.0 0.00 0.00 0.00 72 1009.9
20190422064206 49 25 0.0 0.0 0.00 0.00 0.00 72 1009.9
20190422063705 48 25 0.0 1.0 0.00 0.00 0.00 72 1010.0
20190422063206 48 25 0.0 4.0 0.00 0.00 0.00 73 1009.9
20190422062904 47 24 0.0 4.0 0.00 0.00 0.00 75 1009.9
20190422062206 46 24 0.0 4.0 0.00 0.00 0.00 76 1010.0
20190422061705 46 26 1.0 5.0 0.00 0.00 0.00 76 1010.0
20190422061205 45 26 2.0 5.0 0.00 0.00 0.00 77 1010.1
20190422060705 45 25 3.0 5.0 0.00 0.00 0.00 77 1010.1
20190422060211 45 24 2.0 5.0 0.00 0.00 0.00 77 1010.1
20190422055705 45 23 1.0 4.0 0.00 0.00 0.00 77 1010.2
20190422055206 44 5 1.0 4.0 0.00 0.00 0.00 78 1010.2
20190422054705 44 5 0.0 0.0 0.00 0.00 0.00 79 1010.2
20190422054205 44 5 0.0 4.0 0.00 0.00 0.00 79 1010.4
20190422053705 44 5 0.0 4.0 0.00 0.00 0.00 79 1010.4
20190422053206 44 5 0.0 4.0 0.00 0.00 0.00 79 1010.3
20190422052705 43 5 0.0 3.0 0.00 0.00 0.00 81 1010.3
20190422052205 43 5 0.0 1.0 0.00 0.00 0.00 81 1010.4
20190422051706 42 5 0.0 0.0 0.00 0.00 0.00 82 1010.4
20190422051205 42 5 0.0 4.0 0.00 0.00 0.00 82 1010.5
20190422050705 42 5 1.0 4.0 0.00 0.00 0.00 80 1010.5
20190422050206 43 5 1.0 4.0 0.00 0.00 0.00 79 1010.4
20190422045706 43 5 0.0 0.0 0.00 0.00 0.00 80 1010.4
20190422045205 43 5 0.0 0.0 0.00 0.00 0.00 80 1010.4
20190422044705 43 5 0.0 0.0 0.00 0.00 0.00 80 1010.4
20190422044205 42 5 0.0 0.0 0.00 0.00 0.00 81 1010.5
20190422043705 42 5 0.0 0.0 0.00 0.00 0.00 81 1010.5
20190422043207 42 5 0.0 3.0 0.00 0.00 0.00 80 1010.5
20190422042705 42 5 0.0 4.0 0.00 0.00 0.00 80 1010.6
20190422042205 43 5 1.0 4.0 0.00 0.00 0.00 80 1010.6
20190422041705 43 5 2.0 4.0 0.00 0.00 0.00 79 1010.5
20190422041206 43 5 1.0 4.0 0.00 0.00 0.00 79 1010.5
20190422040706 43 5 1.0 4.0 0.00 0.00 0.00 79 1010.6
20190422040206 43 5 1.0 2.0 0.00 0.00 0.00 79 1010.7
20190422035705 43 5 1.0 2.0 0.00 0.00 0.00 79 1010.7
20190422035205 43 5 0.0 1.0 0.00 0.00 0.00 79 1010.8
20190422034706 43 5 0.0 1.0 0.00 0.00 0.00 78 1010.9
20190422034206 43 5 0.0 3.0 0.00 0.00 0.00 78 1011.0
20190422033706 43 5 0.0 3.0 0.00 0.00 0.00 78 1011.0
20190422033206 44 5 0.0 3.0 0.00 0.00 0.00 78 1011.0
20190422032711 44 5 0.0 3.0 0.00 0.00 0.00 78 1011.0
20190422032205 44 5 0.0 3.0 0.00 0.00 0.00 78 1011.1
20190422031705 43 5 0.0 3.0 0.00 0.00 0.00 78 1011.1
20190422031205 44 5 0.0 3.0 0.00 0.00 0.00 77 1011.2
20190422030705 44 5 0.0 3.0 0.00 0.00 0.00 77 1011.2
20190422030206 44 5 0.0 3.0 0.00 0.00 0.00 76 1011.2
20190422025705 44 5 0.0 3.0 0.00 0.00 0.00 77 1011.3
20190422025206 44 5 0.0 1.0 0.00 0.00 0.00 77 1011.3
20190422024705 44 5 0.0 1.0 0.00 0.00 0.00 77 1011.3
20190422024206 44 5 0.0 2.0 0.00 0.00 0.00 75 1011.6
20190422023705 45 5 0.0 2.0 0.00 0.00 0.00 75 1011.6
20190422023206 45 5 0.0 2.0 0.00 0.00 0.00 76 1011.6
20190422022705 44 5 0.0 0.0 0.00 0.00 0.00 76 1011.4
20190422022205 45 5 0.0 1.0 0.00 0.00 0.00 75 1011.7
20190422021705 45 5 0.0 1.0 0.00 0.00 0.00 74 1011.7
20190422021206 45 5 0.0 1.0 0.00 0.00 0.00 74 1011.7
20190422020705 45 5 0.0 0.0 0.00 0.00 0.00 75 1011.8
20190422020206 45 5 0.0 0.0 0.00 0.00 0.00 74 1011.9
20190422015705 45 5 0.0 3.0 0.00 0.00 0.00 74 1011.9
20190422015206 45 5 0.0 4.0 0.00 0.00 0.00 73 1011.9
20190422014706 46 5 0.0 4.0 0.00 0.00 0.00 73 1011.9
20190422014211 46 5 0.0 4.0 0.00 0.00 0.00 74 1011.9
20190422013705 46 5 0.0 1.0 0.00 0.00 0.00 74 1011.9
20190422013206 46 5 0.0 1.0 0.00 0.00 0.00 73 1012.0
20190422012705 46 5 0.0 5.0 0.00 0.00 0.00 74 1012.0
20190422012205 46 5 0.0 5.0 0.00 0.00 0.00 73 1012.0
20190422011705 46 5 0.0 5.0 0.00 0.00 0.00 72 1012.0
20190422011205 46 0 0.0 0.0 0.00 0.00 0.00 72 1012.1
20190422010711 47 0 0.0 0.0 0.00 0.00 0.00 72 1012.1
20190422010206 47 0 0.0 0.0 0.00 0.00 0.00 72 1012.2
20190422005706 47 0 0.0 0.0 0.00 0.00 0.00 71 1012.3
20190422005206 47 0 0.0 0.0 0.00 0.00 0.00 69 1012.2
20190422004710 48 0 0.0 0.0 0.00 0.00 0.00 68 1012.2
20190422004216 48 0 0.0 0.0 0.00 0.00 0.00 67 1012.3
20190422003705 48 0 0.0 0.0 0.00 0.00 0.00 67 1012.3
20190422003205 49 0 0.0 0.0 0.00 0.00 0.00 67 1012.3
20190422002705 49 0 0.0 0.0 0.00 0.00 0.00 66 1012.4
20190422002206 49 0 0.0 0.0 0.00 0.00 0.00 66 1012.4
20190422001705 49 0 0.0 0.0 0.00 0.00 0.00 66 1012.4
20190422001215 48 0 0.0 0.0 0.00 0.00 0.00 67 1012.4
20190422000705 48 0 0.0 0.0 0.00 0.00 0.00 68 1012.5
20190422000206 48 0 0.0 0.0 0.00 0.00 0.00 68 1012.5
20190421235710 49 0 0.0 0.0 0.00 0.00 0.00 68 1012.5
20190421235205 49 0 0.0 0.0 0.00 0.00 0.00 67 1012.6
20190421234705 49 0 0.0 0.0 0.00 0.00 0.00 67 1012.6
20190421234215 49 0 0.0 1.0 0.00 0.00 0.00 67 1012.7
20190421233706 49 0 0.0 1.0 0.00 0.00 0.00 66 1012.7
20190421233215 49 0 0.0 0.0 0.00 0.00 0.00 67 1012.7
20190421232705 50 0 0.0 0.0 0.00 0.00 0.00 66 1012.8
20190421232206 50 0 0.0 0.0 0.00 0.00 0.00 66 1012.8
20190421231705 50 0 0.0 0.0 0.00 0.00 0.00 66 1012.9
20190421231205 50 0 0.0 0.0 0.00 0.00 0.00 65 1013.0
20190421230705 50 0 0.0 0.0 0.00 0.00 0.00 64 1013.0
20190421230205 50 0 0.0 0.0 0.00 0.00 0.00 66 1012.9
20190421225705 50 0 0.0 0.0 0.00 0.00 0.00 66 1012.9
20190421225205 51 0 0.0 0.0 0.00 0.00 0.00 64 1012.9
20190421224706 51 0 0.0 0.0 0.00 0.00 0.00 63 1012.9
20190421224205 51 0 0.0 0.0 0.00 0.00 0.00 63 1012.9
20190421223705 51 0 0.0 0.0 0.00 0.00 0.00 62 1012.9
20190421223206 52 0 0.0 0.0 0.00 0.00 0.00 62 1012.9
20190421222718 52 0 0.0 0.0 0.00 0.00 0.00 62 1013.0
20190421222210 52 0 0.0 0.0 0.00 0.00 0.00 61 1012.9
20190421221705 52 0 0.0 0.0 0.00 0.00 0.00 62 1013.0
20190421221205 52 0 0.0 0.0 0.00 0.00 0.00 63 1013.1
20190421220705 52 0 0.0 0.0 0.00 0.00 0.00 63 1013.0
20190421220206 52 0 0.0 0.0 0.00 0.00 0.00 63 1013.0
20190421215705 52 0 0.0 1.0 0.00 0.00 0.00 63 1013.0
20190421215205 52 0 0.0 1.0 0.00 0.00 0.00 62 1013.0
20190421214711 52 0 0.0 1.0 0.00 0.00 0.00 62 1013.0
20190421214205 52 0 0.0 0.0 0.00 0.00 0.00 62 1013.0
20190421213706 53 0 0.0 0.0 0.00 0.00 0.00 61 1013.1
20190421213206 53 0 0.0 0.0 0.00 0.00 0.00 60 1013.1
20190421212705 53 0 0.0 0.0 0.00 0.00 0.00 61 1013.1
20190421212205 53 0 0.0 0.0 0.00 0.00 0.00 60 1013.2
20190421211720 53 0 0.0 1.0 0.00 0.00 0.00 58 1013.2
20190421211205 54 0 0.0 1.0 0.00 0.00 0.00 58 1013.2
20190421210706 54 0 0.0 1.0 0.00 0.00 0.00 58 1013.3
20190421210206 55 0 0.0 0.0 0.00 0.00 0.00 57 1013.3
20190421205705 55 0 0.0 0.0 0.00 0.00 0.00 57 1013.4
20190421205210 55 0 0.0 0.0 0.00 0.00 0.00 58 1013.5
20190421204715 55 0 0.0 0.0 0.00 0.00 0.00 58 1013.5
20190421204206 55 0 0.0 0.0 0.00 0.00 0.00 57 1013.5
20190421203705 55 0 0.0 0.0 0.00 0.00 0.00 57 1013.5
20190421203210 54 0 0.0 0.0 0.00 0.00 0.00 57 1013.6
20190421202706 54 0 0.0 0.0 0.00 0.00 0.00 57 1013.6
20190421202205 54 0 0.0 0.0 0.00 0.00 0.00 56 1013.7
20190421201711 55 0 0.0 0.0 0.00 0.00 0.00 55 1013.6
20190421201205 55 0 0.0 0.0 0.00 0.00 0.00 55 1013.7
20190421200705 56 0 0.0 0.0 0.00 0.00 0.00 54 1013.7
20190421200206 56 0 0.0 1.0 0.00 0.00 0.00 53 1013.7
20190421195705 56 0 0.0 1.0 0.00 0.00 0.00 53 1013.8
20190421195215 56 0 0.0 1.0 0.00 0.00 0.00 53 1013.8
20190421194711 56 0 0.0 1.0 0.00 0.00 0.00 54 1014.0
20190421194205 56 0 0.0 0.0 0.00 0.00 0.00 54 1014.0
20190421193705 57 0 0.0 0.0 0.00 0.00 0.00 52 1014.0
20190421193205 57 0 0.0 0.0 0.00 0.00 0.00 52 1014.0
20190421192705 57 0 0.0 0.0 0.00 0.00 0.00 51 1014.0
20190421192205 58 0 0.0 0.0 0.00 0.00 0.00 52 1014.0
20190421191705 58 0 0.0 0.0 0.00 0.00 0.00 51 1014.0
20190421191205 58 0 0.0 0.0 0.00 0.00 0.00 50 1014.0
20190421190705 58 0 0.0 0.0 0.00 0.00 0.00 49 1014.0
20190421190205 58 0 0.0 0.0 0.00 0.00 0.00 50 1014.0
20190421185705 59 0 0.0 0.0 0.00 0.00 0.00 49 1014.0